Time,TemperatureF,DewpointF,PressureIn,WindDirection,WindDirectionDegrees,WindSpeedMPH,WindSpeedGustMPH,Humidity,HourlyPrecipIn,Conditions,Clouds,dailyrainin,SoftwareType,DateUTC
2013-05-24 00:02:00,47.0,40.5,29.94,NNE,23,0.0,1.1,78,0.00,,,0.00,WUHU216HW,2013-05-24 07:02:00,
2013-05-24 00:07:00,46.8,40.3,29.94,North,0,0.0,1.1,78,0.00,,,0.00,WUHU216HW,2013-05-24 07:07:00,
2013-05-24 00:12:00,46.8,40.3,29.94,WSW,248,0.0,0.4,78,0.00,,,0.00,WUHU216HW,2013-05-24 07:12:00,
2013-05-24 00:17:00,46.6,40.1,29.94,WSW,248,0.0,0.4,78,0.00,,,0.00,WUHU216HW,2013-05-24 07:17:00,
2013-05-24 00:22:00,46.6,40.1,29.94,West,270,1.8,1.8,78,0.00,,,0.00,WUHU216HW,2013-05-24 07:22:00,
2013-05-24 00:27:00,46.6,40.5,29.94,NW,315,0.0,1.8,79,0.00,,,0.00,WUHU216HW,2013-05-24 07:27:00,
2013-05-24 00:32:00,46.6,40.5,29.94,NW,315,0.0,1.8,79,0.00,,,0.00,WUHU216HW,2013-05-24 07:32:00,
2013-05-24 00:37:00,46.4,40.3,29.94,WSW,248,1.1,1.1,79,0.00,,,0.00,WUHU216HW,2013-05-24 07:37:00,
2013-05-24 00:42:00,46.4,40.3,29.94,SW,225,0.7,1.1,79,0.00,,,0.00,WUHU216HW,2013-05-24 07:42:00,
2013-05-24 00:47:00,46.4,40.3,29.94,SW,225,0.0,1.1,79,0.00,,,0.00,WUHU216HW,2013-05-24 07:47:00,
2013-05-24 00:52:00,46.3,40.5,29.94,SW,225,1.1,1.1,80,0.00,,,0.00,WUHU216HW,2013-05-24 07:52:00,
2013-05-24 00:57:00,46.1,40.0,29.94,SW,225,1.1,1.3,79,0.00,,,0.00,WUHU216HW,2013-05-24 07:57:00,
2013-05-24 01:02:00,45.9,39.8,29.94,South,180,1.3,1.3,79,0.00,,,0.00,WUHU216HW,2013-05-24 08:02:00,
2013-05-24 01:07:00,45.9,40.4,29.94,SW,225,0.2,3.4,81,0.00,,,0.00,WUHU216HW,2013-05-24 08:07:00,
2013-05-24 01:12:00,45.7,40.0,29.94,South,180,0.0,3.4,80,0.00,,,0.00,WUHU216HW,2013-05-24 08:12:00,
2013-05-24 01:17:00,45.7,40.0,29.94,SSE,158,0.0,1.3,80,0.00,,,0.00,WUHU216HW,2013-05-24 08:17:00,
2013-05-24 01:22:00,45.5,39.8,29.94,SSE,158,0.0,0.0,80,0.00,,,0.00,WUHU216HW,2013-05-24 08:22:00,
2013-05-24 01:27:00,45.4,39.6,29.94,SW,225,0.0,0.7,80,0.00,,,0.00,WUHU216HW,2013-05-24 08:27:00,
2013-05-24 01:32:00,45.2,39.4,29.94,SW,225,0.0,0.7,80,0.00,,,0.00,WUHU216HW,2013-05-24 08:32:00,
2013-05-24 01:37:00,45.0,39.5,29.94,SW,225,0.0,0.0,81,0.00,,,0.00,WUHU216HW,2013-05-24 08:37:00,
2013-05-24 01:42:00,44.8,39.3,29.94,SW,225,0.0,0.4,81,0.00,,,0.00,WUHU216HW,2013-05-24 08:42:00,
2013-05-24 01:47:00,44.8,39.3,29.94,SW,225,1.1,2.2,81,0.00,,,0.00,WUHU216HW,2013-05-24 08:47:00,
2013-05-24 01:52:00,44.8,40.0,29.94,SSW,203,0.4,2.2,83,0.00,,,0.00,WUHU216HW,2013-05-24 08:52:00,
2013-05-24 01:57:00,44.6,40.2,29.94,SSE,158,2.7,3.4,84,0.00,,,0.00,WUHU216HW,2013-05-24 08:57:00,
2013-05-24 02:02:00,44.1,39.6,29.94,South,180,2.2,3.4,84,0.00,,,0.00,WUHU216HW,2013-05-24 09:02:00,
2013-05-24 02:07:00,43.9,39.7,29.94,South,180,2.0,2.5,85,0.00,,,0.00,WUHU216HW,2013-05-24 09:07:00,
2013-05-24 02:12:00,43.7,39.8,29.94,South,180,2.2,3.4,86,0.00,,,0.00,WUHU216HW,2013-05-24 09:12:00,
2013-05-24 02:17:00,43.6,39.3,29.94,South,180,1.1,3.4,85,0.00,,,0.00,WUHU216HW,2013-05-24 09:17:00,
2013-05-24 02:22:00,43.6,39.3,29.94,South,180,1.1,2.5,85,0.00,,,0.00,WUHU216HW,2013-05-24 09:22:00,
2013-05-24 02:27:00,43.6,39.1,29.94,South,180,1.6,2.2,84,0.00,,,0.00,WUHU216HW,2013-05-24 09:27:00,
2013-05-24 02:32:00,43.6,39.1,29.94,SSW,203,0.7,2.2,84,0.00,,,0.00,WUHU216HW,2013-05-24 09:32:00,
2013-05-24 02:37:00,43.6,39.1,29.94,SW,225,0.7,1.8,84,0.00,,,0.00,WUHU216HW,2013-05-24 09:37:00,
2013-05-24 02:42:00,43.4,38.9,29.95,South,180,2.2,2.2,84,0.00,,,0.00,WUHU216HW,2013-05-24 09:42:00,
2013-05-24 02:47:00,43.4,38.5,29.94,South,180,1.6,2.2,83,0.00,,,0.00,WUHU216HW,2013-05-24 09:47:00,
2013-05-24 02:52:00,43.6,39.1,29.94,SSE,158,2.5,2.5,84,0.00,,,0.00,WUHU216HW,2013-05-24 09:52:00,
2013-05-24 02:57:00,43.6,39.3,29.95,SSE,158,2.0,2.5,85,0.00,,,0.00,WUHU216HW,2013-05-24 09:57:00,
2013-05-24 03:02:00,43.2,39.0,29.95,South,180,1.6,2.2,85,0.00,,,0.00,WUHU216HW,2013-05-24 10:02:00,
2013-05-24 03:07:00,43.2,39.0,29.95,South,180,1.1,1.8,85,0.00,,,0.00,WUHU216HW,2013-05-24 10:07:00,
2013-05-24 03:12:00,43.2,38.7,29.95,SSE,158,0.4,1.8,84,0.00,,,0.00,WUHU216HW,2013-05-24 10:12:00,
2013-05-24 03:17:00,43.2,39.0,29.95,SSE,158,1.8,1.8,85,0.00,,,0.00,WUHU216HW,2013-05-24 10:17:00,
2013-05-24 03:22:00,42.8,38.6,29.95,SSE,158,2.0,2.0,85,0.00,,,0.00,WUHU216HW,2013-05-24 10:22:00,
2013-05-24 03:27:00,42.8,38.9,29.95,South,180,2.5,2.5,86,0.00,,,0.00,WUHU216HW,2013-05-24 10:27:00,
2013-05-24 03:32:00,42.8,38.9,29.95,South,180,2.0,2.7,86,0.00,,,0.00,WUHU216HW,2013-05-24 10:32:00,
2013-05-24 03:37:00,42.8,38.9,29.95,SSE,158,2.2,2.7,86,0.00,,,0.00,WUHU216HW,2013-05-24 10:37:00,
2013-05-24 03:42:00,42.8,38.9,29.95,South,180,2.5,2.7,86,0.00,,,0.00,WUHU216HW,2013-05-24 10:42:00,
2013-05-24 03:47:00,42.8,38.9,29.95,South,180,0.9,3.4,86,0.00,,,0.00,WUHU216HW,2013-05-24 10:47:00,
2013-05-24 03:52:00,43.0,38.8,29.95,South,180,1.1,3.4,85,0.00,,,0.00,WUHU216HW,2013-05-24 10:52:00,
2013-05-24 03:57:00,42.8,38.9,29.95,South,180,2.0,2.0,86,0.00,,,0.00,WUHU216HW,2013-05-24 10:57:00,
2013-05-24 04:02:00,42.8,38.6,29.96,SSW,203,0.9,2.0,85,0.00,,,0.00,WUHU216HW,2013-05-24 11:02:00,
2013-05-24 04:07:00,42.8,38.9,29.96,South,180,1.8,1.8,86,0.00,,,0.00,WUHU216HW,2013-05-24 11:07:00,
2013-05-24 04:12:00,42.8,38.6,29.96,SSW,203,1.1,1.8,85,0.00,,,0.00,WUHU216HW,2013-05-24 11:12:00,
2013-05-24 04:17:00,42.8,38.6,29.96,SSE,158,2.0,2.0,85,0.00,,,0.00,WUHU216HW,2013-05-24 11:17:00,
2013-05-24 04:22:00,42.8,38.6,29.96,SSE,158,1.6,2.0,85,0.00,,,0.00,WUHU216HW,2013-05-24 11:22:00,
2013-05-24 04:27:00,42.8,38.6,29.96,South,180,0.9,1.6,85,0.00,,,0.00,WUHU216HW,2013-05-24 11:27:00,
2013-05-24 04:32:00,42.7,38.4,29.96,SSW,203,0.7,1.6,85,0.00,,,0.00,WUHU216HW,2013-05-24 11:32:00,
2013-05-24 04:37:00,42.5,38.3,29.96,South,180,1.3,2.0,85,0.00,,,0.00,WUHU216HW,2013-05-24 11:37:00,
2013-05-24 04:42:00,42.5,38.3,29.96,SSE,158,1.1,2.0,85,0.00,,,0.00,WUHU216HW,2013-05-24 11:42:00,
2013-05-24 04:47:00,42.5,38.3,29.96,South,180,1.1,1.6,85,0.00,,,0.00,WUHU216HW,2013-05-24 11:47:00,
2013-05-24 04:52:00,42.5,38.3,29.96,South,180,0.4,2.0,85,0.00,,,0.00,WUHU216HW,2013-05-24 11:52:00,
2013-05-24 04:57:00,42.5,38.3,29.96,SSW,203,1.6,2.0,85,0.00,,,0.00,WUHU216HW,2013-05-24 11:57:00,
2013-05-24 05:02:00,42.7,39.1,29.96,SSW,203,1.1,2.2,87,0.00,,,0.00,WUHU216HW,2013-05-24 12:02:00,
2013-05-24 05:07:00,42.8,39.3,29.97,SSW,203,1.3,3.1,87,0.00,,,0.00,WUHU216HW,2013-05-24 12:07:00,
2013-05-24 05:12:00,43.0,39.1,29.96,South,180,1.8,3.1,86,0.00,,,0.00,WUHU216HW,2013-05-24 12:12:00,
2013-05-24 05:17:00,43.2,39.2,29.97,South,180,0.7,2.2,86,0.00,,,0.00,WUHU216HW,2013-05-24 12:17:00,
2013-05-24 05:22:00,43.4,39.8,29.96,South,180,0.2,1.8,87,0.00,,,0.00,WUHU216HW,2013-05-24 12:22:00,
2013-05-24 05:27:00,43.6,39.6,29.97,South,180,0.0,1.6,86,0.00,,,0.00,WUHU216HW,2013-05-24 12:27:00,
2013-05-24 05:32:00,43.7,39.8,29.97,SSE,158,1.1,1.1,86,0.00,,,0.00,WUHU216HW,2013-05-24 12:32:00,
2013-05-24 05:37:00,43.9,40.0,29.97,South,180,1.1,1.1,86,0.00,,,0.00,WUHU216HW,2013-05-24 12:37:00,
2013-05-24 05:42:00,43.9,40.0,29.97,SW,225,1.8,2.7,86,0.00,,,0.00,WUHU216HW,2013-05-24 12:42:00,
2013-05-24 05:47:00,44.3,40.3,29.97,SSE,158,0.7,2.7,86,0.00,,,0.00,WUHU216HW,2013-05-24 12:47:00,
2013-05-24 05:52:00,44.3,40.1,29.97,SSE,158,0.7,1.8,85,0.00,,,0.00,WUHU216HW,2013-05-24 12:52:00,
2013-05-24 05:57:00,44.3,40.1,29.96,SSE,158,0.0,1.3,85,0.00,,,0.00,WUHU216HW,2013-05-24 12:57:00,
2013-05-24 06:02:00,44.5,40.2,29.97,SSE,158,0.0,1.1,85,0.00,,,0.00,WUHU216HW,2013-05-24 13:02:00,
2013-05-24 06:07:00,44.5,40.2,29.97,SSE,158,0.0,0.2,85,0.00,,,0.00,WUHU216HW,2013-05-24 13:07:00,
2013-05-24 06:12:00,44.5,40.2,29.97,SSE,158,0.4,0.9,85,0.00,,,0.00,WUHU216HW,2013-05-24 13:12:00,
2013-05-24 06:17:00,44.5,40.2,29.97,SSE,158,0.0,0.9,85,0.00,,,0.00,WUHU216HW,2013-05-24 13:17:00,
2013-05-24 06:22:00,44.5,40.2,29.97,SSE,158,0.4,0.4,85,0.00,,,0.00,WUHU216HW,2013-05-24 13:22:00,
2013-05-24 06:27:00,44.6,40.4,29.97,South,180,1.6,1.6,85,0.00,,,0.00,WUHU216HW,2013-05-24 13:27:00,
2013-05-24 06:32:00,44.6,40.7,29.97,SSW,203,2.5,2.5,86,0.00,,,0.00,WUHU216HW,2013-05-24 13:32:00,
2013-05-24 06:37:00,44.8,40.9,29.97,SW,225,1.6,2.5,86,0.00,,,0.00,WUHU216HW,2013-05-24 13:37:00,
2013-05-24 06:42:00,45.0,41.0,29.97,SW,225,2.2,2.5,86,0.00,,,0.00,WUHU216HW,2013-05-24 13:42:00,
2013-05-24 06:47:00,45.2,41.2,29.97,SSW,203,0.9,2.5,86,0.00,,,0.00,WUHU216HW,2013-05-24 13:47:00,
2013-05-24 06:52:00,45.4,41.4,29.97,SW,225,1.3,1.8,86,0.00,,,0.00,WUHU216HW,2013-05-24 13:52:00,
2013-05-24 06:57:00,45.2,41.2,29.97,SSE,158,1.8,2.9,86,0.00,,,0.00,WUHU216HW,2013-05-24 13:57:00,
2013-05-24 07:02:00,45.4,41.4,29.97,SSE,158,3.1,3.1,86,0.00,,,0.00,WUHU216HW,2013-05-24 14:02:00,
2013-05-24 07:07:00,45.7,42.1,29.97,South,180,1.1,4.0,87,0.00,,,0.00,WUHU216HW,2013-05-24 14:07:00,
2013-05-24 07:12:00,45.9,42.3,29.97,South,180,2.5,4.0,87,0.00,,,0.00,WUHU216HW,2013-05-24 14:12:00,
2013-05-24 07:17:00,46.3,42.3,29.97,SSE,158,2.5,3.4,86,0.00,,,0.00,WUHU216HW,2013-05-24 14:17:00,
2013-05-24 07:22:00,46.8,42.8,29.97,SSW,203,0.9,2.7,86,0.00,,,0.00,WUHU216HW,2013-05-24 14:22:00,
2013-05-24 07:27:00,47.2,43.2,29.97,SW,225,1.8,2.7,86,0.00,,,0.00,WUHU216HW,2013-05-24 14:27:00,
2013-05-24 07:32:00,47.7,43.8,29.97,SW,225,2.5,3.1,86,0.00,,,0.00,WUHU216HW,2013-05-24 14:32:00,
2013-05-24 07:37:00,48.4,44.1,29.97,SW,225,3.4,3.6,85,0.00,,,0.00,WUHU216HW,2013-05-24 14:37:00,
2013-05-24 07:42:00,48.6,43.9,29.97,SSE,158,3.4,3.6,84,0.00,,,0.00,WUHU216HW,2013-05-24 14:42:00,
2013-05-24 07:47:00,49.0,44.0,29.97,WSW,248,2.0,3.4,83,0.00,,,0.00,WUHU216HW,2013-05-24 14:47:00,
2013-05-24 07:52:00,49.5,44.5,29.96,West,270,2.0,2.5,83,0.00,,,0.00,WUHU216HW,2013-05-24 14:52:00,
2013-05-24 07:57:00,49.9,45.2,29.97,WNW,293,2.9,2.9,84,0.00,,,0.00,WUHU216HW,2013-05-24 14:57:00,
2013-05-24 08:02:00,50.4,45.4,29.97,WNW,293,0.4,2.9,83,0.00,,,0.00,WUHU216HW,2013-05-24 15:02:00,
2013-05-24 08:07:00,50.4,45.4,29.96,West,270,1.3,2.5,83,0.00,,,0.00,WUHU216HW,2013-05-24 15:07:00,
2013-05-24 08:12:00,50.8,45.5,29.96,NW,315,2.2,2.2,82,0.00,,,0.00,WUHU216HW,2013-05-24 15:12:00,
2013-05-24 08:17:00,51.1,45.8,29.96,NE,45,0.9,2.5,82,0.00,,,0.00,WUHU216HW,2013-05-24 15:17:00,
2013-05-24 08:22:00,51.3,45.6,29.96,West,270,1.3,2.5,81,0.00,,,0.00,WUHU216HW,2013-05-24 15:22:00,
2013-05-24 08:27:00,51.7,45.7,29.97,SW,225,1.1,2.0,80,0.00,,,0.00,WUHU216HW,2013-05-24 15:27:00,
2013-05-24 08:32:00,51.8,45.2,29.97,SSE,158,0.7,2.0,78,0.00,,,0.00,WUHU216HW,2013-05-24 15:32:00,
2013-05-24 08:37:00,52.2,45.5,29.97,ESE,113,0.4,1.8,78,0.00,,,0.00,WUHU216HW,2013-05-24 15:37:00,
2013-05-24 08:42:00,52.6,45.5,29.97,West,270,0.4,1.8,77,0.00,,,0.00,WUHU216HW,2013-05-24 15:42:00,
2013-05-24 08:47:00,52.6,45.5,29.97,ENE,68,1.1,1.8,77,0.00,,,0.00,WUHU216HW,2013-05-24 15:47:00,
2013-05-24 08:52:00,52.7,45.4,29.97,NNE,23,0.4,1.6,76,0.00,,,0.00,WUHU216HW,2013-05-24 15:52:00,
2013-05-24 08:57:00,52.6,45.5,29.97,ESE,113,0.4,1.3,77,0.00,,,0.00,WUHU216HW,2013-05-24 15:57:00,
2013-05-24 09:02:00,52.6,45.2,29.97,NW,315,0.0,2.2,76,0.00,,,0.00,WUHU216HW,2013-05-24 16:02:00,
2013-05-24 09:07:00,52.4,44.7,29.97,NW,315,0.0,2.2,75,0.00,,,0.00,WUHU216HW,2013-05-24 16:07:00,
2013-05-24 09:12:00,52.6,45.2,29.97,SW,225,0.0,1.1,76,0.00,,,0.00,WUHU216HW,2013-05-24 16:12:00,
2013-05-24 09:17:00,53.1,45.7,29.97,NNE,23,1.1,2.2,76,0.00,,,0.00,WUHU216HW,2013-05-24 16:17:00,
2013-05-24 09:22:00,53.6,46.3,29.97,NE,45,0.9,3.8,76,0.00,,,0.00,WUHU216HW,2013-05-24 16:22:00,
2013-05-24 09:27:00,54.7,47.6,29.97,NNE,23,2.0,3.8,77,0.00,,,0.00,WUHU216HW,2013-05-24 16:27:00,
2013-05-24 09:32:00,55.3,47.4,29.97,North,0,1.6,4.5,75,0.00,,,0.00,WUHU216HW,2013-05-24 16:32:00,
2013-05-24 09:37:00,55.8,48.3,29.97,North,0,2.2,4.5,76,0.00,,,0.00,WUHU216HW,2013-05-24 16:37:00,
2013-05-24 09:42:00,56.5,48.2,29.97,NNE,23,2.5,3.4,74,0.00,,,0.00,WUHU216HW,2013-05-24 16:42:00,
2013-05-24 09:47:00,56.9,48.6,29.97,NNE,23,4.3,4.5,74,0.00,,,0.00,WUHU216HW,2013-05-24 16:47:00,
2013-05-24 09:52:00,57.1,47.7,29.97,NNE,23,3.4,5.6,71,0.00,,,0.00,WUHU216HW,2013-05-24 16:52:00,
2013-05-24 09:57:00,57.1,48.4,29.97,NE,45,4.5,5.6,73,0.00,,,0.00,WUHU216HW,2013-05-24 16:57:00,
2013-05-24 10:02:00,56.7,48.1,29.98,North,0,6.9,6.9,73,0.00,,,0.00,WUHU216HW,2013-05-24 17:02:00,
2013-05-24 10:07:00,56.5,48.0,29.98,NNE,23,2.9,6.9,73,0.00,,,0.00,WUHU216HW,2013-05-24 17:07:00,
2013-05-24 10:12:00,56.7,48.1,29.98,North,0,3.8,5.6,73,0.00,,,0.00,WUHU216HW,2013-05-24 17:12:00,
2013-05-24 10:17:00,56.7,48.1,29.98,NNW,338,3.4,5.6,73,0.00,,,0.00,WUHU216HW,2013-05-24 17:17:00,
2013-05-24 10:22:00,56.5,47.3,29.98,NE,45,4.5,7.8,71,0.00,,,0.00,WUHU216HW,2013-05-24 17:22:00,
2013-05-24 10:28:00,56.3,46.7,29.98,West,270,4.5,7.8,70,0.00,,,0.00,WUHU216HW,2013-05-24 17:28:00,
2013-05-24 10:33:00,55.8,46.5,29.98,North,0,3.4,8.1,71,0.00,,,0.00,WUHU216HW,2013-05-24 17:33:00,
2013-05-24 10:38:00,55.8,47.3,29.98,NNE,23,1.1,8.1,73,0.00,,,0.00,WUHU216HW,2013-05-24 17:38:00,
2013-05-24 10:43:00,56.2,46.5,29.98,NW,315,3.8,5.6,70,0.00,,,0.00,WUHU216HW,2013-05-24 17:43:00,
2013-05-24 10:48:00,56.3,46.3,29.99,WNW,293,2.5,4.0,69,0.00,,,0.00,WUHU216HW,2013-05-24 17:48:00,
2013-05-24 10:53:00,56.5,46.4,29.99,WSW,248,0.4,4.0,69,0.00,,,0.00,WUHU216HW,2013-05-24 17:53:00,
2013-05-24 10:58:00,56.7,45.0,29.99,West,270,1.1,2.7,65,0.00,,,0.00,WUHU216HW,2013-05-24 17:58:00,
2013-05-24 11:03:00,56.2,45.7,29.99,West,270,3.1,3.1,68,0.00,,,0.00,WUHU216HW,2013-05-24 18:03:00,
2013-05-24 11:08:00,55.8,45.8,29.99,West,270,4.0,4.0,69,0.00,,,0.00,WUHU216HW,2013-05-24 18:08:00,
2013-05-24 11:13:00,55.1,45.1,29.99,WSW,248,2.5,4.0,69,0.00,,,0.00,WUHU216HW,2013-05-24 18:13:00,
2013-05-24 11:18:00,54.9,44.9,29.99,WSW,248,5.4,6.3,69,0.00,,,0.00,WUHU216HW,2013-05-24 18:18:00,
2013-05-24 11:23:00,55.4,45.5,29.99,WNW,293,4.0,6.3,69,0.00,,,0.00,WUHU216HW,2013-05-24 18:23:00,
2013-05-24 11:28:00,56.0,45.5,29.99,NW,315,2.9,4.7,68,0.00,,,0.00,WUHU216HW,2013-05-24 18:28:00,
2013-05-24 11:33:00,56.7,45.5,29.99,WSW,248,3.4,4.5,66,0.00,,,0.00,WUHU216HW,2013-05-24 18:33:00,
2013-05-24 11:38:00,56.7,44.7,29.99,WNW,293,2.5,4.3,64,0.00,,,0.00,WUHU216HW,2013-05-24 18:38:00,
2013-05-24 11:43:00,56.3,46.3,30.00,NW,315,0.9,4.0,69,0.00,,,0.00,WUHU216HW,2013-05-24 18:43:00,
2013-05-24 11:48:00,56.5,46.4,30.00,NNW,338,1.6,5.4,69,0.00,,,0.00,WUHU216HW,2013-05-24 18:48:00,
2013-05-24 11:53:00,56.7,46.6,30.00,West,270,1.8,5.4,69,0.00,,,0.00,WUHU216HW,2013-05-24 18:53:00,
2013-05-24 11:58:00,56.7,46.6,30.00,WNW,293,1.1,6.0,69,0.00,,,0.00,WUHU216HW,2013-05-24 18:58:00,
2013-05-24 12:03:00,56.7,46.3,30.00,ENE,68,1.1,6.0,68,0.00,,,0.00,WUHU216HW,2013-05-24 19:03:00,
2013-05-24 12:08:00,56.7,46.6,30.00,West,270,0.4,2.0,69,0.00,,,0.00,WUHU216HW,2013-05-24 19:08:00,
2013-05-24 12:13:00,56.5,45.3,30.00,NNE,23,2.2,2.2,66,0.00,,,0.00,WUHU216HW,2013-05-24 19:13:00,
2013-05-24 12:18:00,56.0,45.2,30.00,NW,315,1.8,2.5,67,0.00,,,0.00,WUHU216HW,2013-05-24 19:18:00,
2013-05-24 12:23:00,55.4,45.1,30.00,NE,45,0.7,2.5,68,0.00,,,0.00,WUHU216HW,2013-05-24 19:23:00,
2013-05-24 12:28:00,55.8,45.8,30.00,North,0,2.7,2.7,69,0.00,,,0.00,WUHU216HW,2013-05-24 19:28:00,
2013-05-24 12:33:00,55.4,45.5,30.00,North,0,0.9,3.1,69,0.00,,,0.00,WUHU216HW,2013-05-24 19:33:00,
2013-05-24 12:38:00,55.4,46.3,30.00,West,270,1.1,3.1,71,0.00,,,0.00,WUHU216HW,2013-05-24 19:38:00,
2013-05-24 12:43:00,55.8,46.5,30.00,NE,45,0.0,1.1,71,0.00,,,0.00,WUHU216HW,2013-05-24 19:43:00,
2013-05-24 12:48:00,56.0,46.7,30.00,West,270,0.9,1.1,71,0.00,,,0.00,WUHU216HW,2013-05-24 19:48:00,
2013-05-24 12:53:00,56.0,46.0,30.00,SW,225,0.7,0.9,69,0.00,,,0.00,WUHU216HW,2013-05-24 19:53:00,
2013-05-24 12:58:00,56.0,46.4,30.00,NW,315,0.9,0.9,70,0.00,,,0.00,WUHU216HW,2013-05-24 19:58:00,
2013-05-24 13:03:00,56.0,46.0,30.00,NW,315,1.6,2.9,69,0.00,,,0.00,WUHU216HW,2013-05-24 20:03:00,
2013-05-24 13:08:00,55.8,45.8,30.00,WNW,293,0.0,2.9,69,0.00,,,0.00,WUHU216HW,2013-05-24 20:08:00,
2013-05-24 13:13:00,56.2,46.2,30.00,North,0,0.0,1.6,69,0.00,,,0.00,WUHU216HW,2013-05-24 20:13:00,
2013-05-24 13:18:00,56.3,46.3,30.00,NW,315,0.4,1.6,69,0.00,,,0.00,WUHU216HW,2013-05-24 20:18:00,
2013-05-24 13:23:00,56.5,46.1,30.00,WSW,248,1.1,2.0,68,0.00,,,0.00,WUHU216HW,2013-05-24 20:23:00,
2013-05-24 13:28:00,56.3,45.5,30.00,South,180,1.1,2.0,67,0.00,,,0.00,WUHU216HW,2013-05-24 20:28:00,
2013-05-24 13:33:00,56.5,45.3,30.00,SSE,158,1.6,3.6,66,0.00,,,0.00,WUHU216HW,2013-05-24 20:33:00,
2013-05-24 13:38:00,57.1,45.8,29.99,SW,225,1.3,3.6,66,0.00,,,0.00,WUHU216HW,2013-05-24 20:38:00,
2013-05-24 13:43:00,57.2,46.4,30.00,SE,135,1.8,2.7,67,0.00,,,0.00,WUHU216HW,2013-05-24 20:43:00,
2013-05-24 13:48:00,57.8,45.6,30.00,SSE,158,2.5,2.5,64,0.00,,,0.00,WUHU216HW,2013-05-24 20:48:00,
2013-05-24 13:53:00,58.3,46.2,29.99,SW,225,1.1,4.9,64,0.00,,,0.00,WUHU216HW,2013-05-24 20:53:00,
2013-05-24 13:58:00,58.9,47.1,29.99,SE,135,0.4,4.9,65,0.00,,,0.00,WUHU216HW,2013-05-24 20:58:00,
2013-05-24 14:03:00,59.6,47.8,29.99,ESE,113,1.8,3.6,65,0.00,,,0.00,WUHU216HW,2013-05-24 21:03:00,
2013-05-24 14:08:00,59.9,47.4,29.99,SSE,158,2.5,3.6,63,0.00,,,0.00,WUHU216HW,2013-05-24 21:08:00,
2013-05-24 14:13:00,60.5,47.9,29.99,SE,135,2.0,4.0,63,0.00,,,0.00,WUHU216HW,2013-05-24 21:13:00,
2013-05-24 14:18:00,61.4,48.7,29.99,East,90,1.8,4.0,63,0.00,,,0.00,WUHU216HW,2013-05-24 21:18:00,
2013-05-24 14:23:00,62.3,49.5,29.99,ESE,113,2.7,3.8,63,0.00,,,0.00,WUHU216HW,2013-05-24 21:23:00,
2013-05-24 14:28:00,63.7,49.6,29.99,SSW,203,1.8,3.6,60,0.00,,,0.00,WUHU216HW,2013-05-24 21:28:00,
2013-05-24 14:33:00,64.3,48.6,29.99,SSW,203,3.4,3.4,57,0.00,,,0.00,WUHU216HW,2013-05-24 21:33:00,
2013-05-24 14:38:00,63.9,48.8,29.99,SSW,203,1.1,3.4,58,0.00,,,0.00,WUHU216HW,2013-05-24 21:38:00,
2013-05-24 14:43:00,63.5,48.0,29.99,SSE,158,0.4,2.9,57,0.00,,,0.00,WUHU216HW,2013-05-24 21:43:00,
2013-05-24 14:48:00,63.7,48.2,29.99,ESE,113,1.1,3.6,57,0.00,,,0.00,WUHU216HW,2013-05-24 21:48:00,
2013-05-24 14:53:00,65.3,48.3,29.99,NNW,338,1.1,3.6,54,0.00,,,0.00,WUHU216HW,2013-05-24 21:53:00,
2013-05-24 14:58:00,68.0,50.8,29.99,NE,45,2.9,4.9,54,0.00,,,0.00,WUHU216HW,2013-05-24 21:58:00,
2013-05-24 15:03:00,69.5,51.1,29.99,North,0,0.9,4.9,52,0.00,,,0.00,WUHU216HW,2013-05-24 22:03:00,
2013-05-24 15:08:00,70.9,52.4,29.99,NE,45,2.9,4.9,52,0.00,,,0.00,WUHU216HW,2013-05-24 22:08:00,
2013-05-24 15:13:00,71.6,53.0,29.99,NW,315,1.6,4.9,52,0.00,,,0.00,WUHU216HW,2013-05-24 22:13:00,
2013-05-24 15:18:00,71.6,50.2,29.99,NNW,338,4.0,4.0,47,0.00,,,0.00,WUHU216HW,2013-05-24 22:18:00,
2013-05-24 15:23:00,70.6,51.0,29.99,NE,45,4.7,4.9,50,0.00,,,0.00,WUHU216HW,2013-05-24 22:23:00,
2013-05-24 15:28:00,69.1,48.6,29.99,NNE,23,4.7,4.9,48,0.00,,,0.00,WUHU216HW,2013-05-24 22:28:00,
2013-05-24 15:33:00,67.1,48.0,29.99,NNW,338,5.4,6.3,50,0.00,,,0.00,WUHU216HW,2013-05-24 22:33:00,
2013-05-24 15:38:00,65.5,47.4,29.99,NNW,338,5.1,6.3,52,0.00,,,0.00,WUHU216HW,2013-05-24 22:38:00,
2013-05-24 15:43:00,65.3,47.7,29.99,North,0,5.4,5.4,53,0.00,,,0.00,WUHU216HW,2013-05-24 22:43:00,
2013-05-24 15:48:00,65.7,48.1,29.99,North,0,3.6,6.3,53,0.00,,,0.00,WUHU216HW,2013-05-24 22:48:00,
2013-05-24 15:53:00,65.0,46.9,29.99,NNW,338,4.5,6.3,52,0.00,,,0.00,WUHU216HW,2013-05-24 22:53:00,
2013-05-24 15:58:00,66.1,49.0,29.99,NNE,23,1.8,4.5,54,0.00,,,0.00,WUHU216HW,2013-05-24 22:58:00,
2013-05-24 16:03:00,66.4,47.8,30.00,NW,315,5.4,5.4,51,0.00,,,0.00,WUHU216HW,2013-05-24 23:03:00,
2013-05-24 16:08:00,67.3,45.7,30.00,NE,45,4.0,5.4,46,0.00,,,0.00,WUHU216HW,2013-05-24 23:08:00,
2013-05-24 16:13:00,66.2,46.0,30.00,WSW,248,1.1,4.0,48,0.00,,,0.00,WUHU216HW,2013-05-24 23:13:00,
2013-05-24 16:18:00,65.7,46.0,30.00,SSW,203,1.6,3.1,49,0.00,,,0.00,WUHU216HW,2013-05-24 23:18:00,
2013-05-24 16:23:00,64.1,44.5,30.00,SW,225,2.5,4.0,49,0.00,,,0.00,WUHU216HW,2013-05-24 23:23:00,
2013-05-24 16:28:00,62.3,44.4,30.00,NNW,338,4.9,4.9,52,0.00,,,0.00,WUHU216HW,2013-05-24 23:28:00,
2013-05-24 16:33:00,61.7,44.9,30.00,SW,225,2.5,4.9,54,0.00,,,0.00,WUHU216HW,2013-05-24 23:33:00,
2013-05-24 16:38:00,62.6,44.7,30.00,SW,225,2.9,4.0,52,0.00,,,0.00,WUHU216HW,2013-05-24 23:38:00,
2013-05-24 16:43:00,62.6,45.7,30.00,SW,225,2.0,2.9,54,0.00,,,0.00,WUHU216HW,2013-05-24 23:43:00,
2013-05-24 16:48:00,62.1,45.2,30.00,NW,315,3.8,3.8,54,0.00,,,0.00,WUHU216HW,2013-05-24 23:48:00,
2013-05-24 16:53:00,61.0,44.7,30.00,West,270,1.1,3.8,55,0.00,,,0.00,WUHU216HW,2013-05-24 23:53:00,
2013-05-24 16:58:00,61.0,45.2,30.00,WNW,293,1.8,5.4,56,0.00,,,0.00,WUHU216HW,2013-05-24 23:58:00,
2013-05-24 17:03:00,61.0,46.2,30.00,SW,225,0.9,5.4,58,0.00,,,0.00,WUHU216HW,2013-05-25 00:03:00,
2013-05-24 17:08:00,59.9,45.1,30.01,NNE,23,1.6,5.6,58,0.00,,,0.00,WUHU216HW,2013-05-25 00:08:00,
2013-05-24 17:13:00,59.0,46.0,30.00,North,0,1.8,5.6,62,0.00,,,0.00,WUHU216HW,2013-05-25 00:13:00,
2013-05-24 17:18:00,58.7,46.1,30.01,SW,225,3.8,3.8,63,0.00,,,0.00,WUHU216HW,2013-05-25 00:18:00,
2013-05-24 17:23:00,58.3,46.2,30.01,SW,225,1.1,3.8,64,0.00,,,0.00,WUHU216HW,2013-05-25 00:23:00,
2013-05-24 17:28:00,58.5,46.4,30.01,NNW,338,1.1,4.9,64,0.00,,,0.00,WUHU216HW,2013-05-25 00:28:00,
2013-05-24 17:33:00,58.1,46.4,30.01,SW,225,2.7,4.9,65,0.00,,,0.00,WUHU216HW,2013-05-25 00:33:00,
2013-05-24 17:38:00,58.0,46.3,30.01,SW,225,4.9,4.9,65,0.00,,,0.00,WUHU216HW,2013-05-25 00:38:00,
2013-05-24 17:43:00,57.1,46.5,30.01,SW,225,4.7,4.9,68,0.00,,,0.00,WUHU216HW,2013-05-25 00:43:00,
2013-05-24 17:48:00,56.5,46.4,30.01,SW,225,5.4,5.4,69,0.00,,,0.00,WUHU216HW,2013-05-25 00:48:00,
2013-05-24 17:53:00,56.0,46.4,30.01,WSW,248,2.0,5.4,70,0.00,,,0.00,WUHU216HW,2013-05-25 00:53:00,
2013-05-24 17:58:00,56.0,46.4,30.01,WSW,248,1.1,3.8,70,0.00,,,0.00,WUHU216HW,2013-05-25 00:58:00,
2013-05-24 18:03:00,55.8,46.3,30.01,WSW,248,0.7,3.8,70,0.00,,,0.00,WUHU216HW,2013-05-25 01:03:00,
2013-05-24 18:08:00,55.8,46.3,30.01,WSW,248,1.8,2.9,70,0.00,,,0.00,WUHU216HW,2013-05-25 01:08:00,
2013-05-24 18:13:00,56.0,46.4,30.00,WSW,248,0.4,1.8,70,0.00,,,0.00,WUHU216HW,2013-05-25 01:13:00,
2013-05-24 18:18:00,56.0,46.4,30.00,West,270,2.0,2.0,70,0.00,,,0.00,WUHU216HW,2013-05-25 01:18:00,
2013-05-24 18:23:00,56.0,46.4,30.00,West,270,0.4,2.0,70,0.00,,,0.00,WUHU216HW,2013-05-25 01:23:00,
2013-05-24 18:28:00,56.2,47.3,30.00,SW,225,1.1,1.6,72,0.00,,,0.00,WUHU216HW,2013-05-25 01:28:00,
2013-05-24 18:33:00,55.8,47.3,30.00,SW,225,2.7,2.7,73,0.00,,,0.00,WUHU216HW,2013-05-25 01:33:00,
2013-05-24 18:38:00,55.4,47.3,30.00,WSW,248,1.6,4.0,74,0.00,,,0.00,WUHU216HW,2013-05-25 01:38:00,
2013-05-24 18:43:00,55.1,46.9,30.00,SW,225,1.1,4.0,74,0.00,,,0.00,WUHU216HW,2013-05-25 01:43:00,
2013-05-24 18:48:00,54.5,47.4,30.00,WSW,248,2.5,2.7,77,0.00,,,0.00,WUHU216HW,2013-05-25 01:48:00,
2013-05-24 18:53:00,54.2,47.2,30.00,NW,315,0.9,2.7,77,0.00,,,0.00,WUHU216HW,2013-05-25 01:53:00,
2013-05-24 18:58:00,54.0,47.0,30.00,West,270,1.3,3.1,77,0.00,,,0.00,WUHU216HW,2013-05-25 01:58:00,
2013-05-24 19:03:00,54.0,47.4,30.00,WSW,248,1.1,3.8,78,0.00,,,0.00,WUHU216HW,2013-05-25 02:03:00,
2013-05-24 19:08:00,53.8,46.8,30.01,NW,315,0.9,3.8,77,0.00,,,0.00,WUHU216HW,2013-05-25 02:08:00,
2013-05-24 19:13:00,53.8,47.2,30.00,WSW,248,0.2,2.5,78,0.00,,,0.00,WUHU216HW,2013-05-25 02:13:00,
2013-05-24 19:18:00,53.6,47.0,30.01,WSW,248,3.1,3.1,78,0.00,,,0.00,WUHU216HW,2013-05-25 02:18:00,
2013-05-24 19:23:00,53.5,46.8,30.00,SW,225,1.3,3.1,78,0.00,,,0.00,WUHU216HW,2013-05-25 02:23:00,
2013-05-24 19:28:00,53.1,46.8,30.01,SW,225,4.5,4.5,79,0.00,,,0.00,WUHU216HW,2013-05-25 02:28:00,
2013-05-24 19:33:00,52.9,47.0,30.00,West,270,2.7,4.5,80,0.00,,,0.00,WUHU216HW,2013-05-25 02:33:00,
2013-05-24 19:38:00,52.9,46.6,30.01,WNW,293,0.4,2.9,79,0.00,,,0.00,WUHU216HW,2013-05-25 02:38:00,
2013-05-24 19:43:00,52.9,46.6,30.01,WNW,293,2.9,2.9,79,0.00,,,0.00,WUHU216HW,2013-05-25 02:43:00,
2013-05-24 19:48:00,52.9,46.6,30.01,WSW,248,1.1,2.9,79,0.00,,,0.00,WUHU216HW,2013-05-25 02:48:00,
2013-05-24 19:53:00,52.9,47.0,30.00,WSW,248,1.1,2.5,80,0.00,,,0.00,WUHU216HW,2013-05-25 02:53:00,
2013-05-24 19:58:00,52.7,46.8,30.00,WSW,248,1.3,4.5,80,0.00,,,0.00,WUHU216HW,2013-05-25 02:58:00,
2013-05-24 20:03:00,52.7,46.8,30.00,WNW,293,1.8,4.5,80,0.00,,,0.00,WUHU216HW,2013-05-25 03:03:00,
2013-05-24 20:08:00,52.7,46.8,30.00,WSW,248,1.8,3.8,80,0.00,,,0.00,WUHU216HW,2013-05-25 03:08:00,
2013-05-24 20:13:00,52.9,47.0,30.00,SW,225,0.4,3.8,80,0.00,,,0.00,WUHU216HW,2013-05-25 03:13:00,
2013-05-24 20:18:00,52.9,47.0,30.00,SW,225,1.6,3.4,80,0.00,,,0.00,WUHU216HW,2013-05-25 03:18:00,
2013-05-24 20:23:00,52.9,47.0,30.00,NW,315,2.0,3.4,80,0.00,,,0.00,WUHU216HW,2013-05-25 03:23:00,
2013-05-24 20:28:00,52.7,46.8,30.00,SW,225,5.1,5.1,80,0.00,,,0.00,WUHU216HW,2013-05-25 03:28:00,
2013-05-24 20:33:00,52.7,46.8,30.00,SSW,203,2.0,5.1,80,0.00,,,0.00,WUHU216HW,2013-05-25 03:33:00,
2013-05-24 20:38:00,52.9,47.0,30.00,NW,315,2.5,4.9,80,0.00,,,0.00,WUHU216HW,2013-05-25 03:38:00,
2013-05-24 20:43:00,52.7,46.8,30.01,WSW,248,3.6,4.3,80,0.00,,,0.00,WUHU216HW,2013-05-25 03:43:00,
2013-05-24 20:48:00,52.6,46.9,30.01,WSW,248,1.8,3.6,81,0.00,,,0.00,WUHU216HW,2013-05-25 03:48:00,
2013-05-24 20:53:00,52.4,46.7,30.00,SW,225,3.8,3.8,81,0.00,,,0.00,WUHU216HW,2013-05-25 03:53:00,
2013-05-24 20:58:00,52.2,46.5,30.01,WSW,248,1.3,3.8,81,0.00,,,0.00,WUHU216HW,2013-05-25 03:58:00,
2013-05-24 21:03:00,52.2,46.5,30.01,WSW,248,1.8,4.9,81,0.00,,,0.00,WUHU216HW,2013-05-25 04:03:00,
2013-05-24 21:08:00,52.0,46.7,30.01,SW,225,2.5,4.9,82,0.00,,,0.00,WUHU216HW,2013-05-25 04:08:00,
2013-05-24 21:13:00,52.0,46.7,30.01,NNW,338,1.8,2.5,82,0.00,,,0.00,WUHU216HW,2013-05-25 04:13:00,
2013-05-24 21:18:00,51.8,46.5,30.01,WSW,248,1.3,2.0,82,0.00,,,0.00,WUHU216HW,2013-05-25 04:18:00,
2013-05-24 21:23:00,51.8,46.5,30.01,SW,225,1.1,2.2,82,0.00,,,0.00,WUHU216HW,2013-05-25 04:23:00,
2013-05-24 21:28:00,51.8,46.5,30.01,SW,225,0.7,2.2,82,0.00,,,0.00,WUHU216HW,2013-05-25 04:28:00,
2013-05-24 21:33:00,51.8,46.5,30.01,WSW,248,0.2,2.2,82,0.00,,,0.00,WUHU216HW,2013-05-25 04:33:00,
2013-05-24 21:38:00,51.7,46.4,30.01,SW,225,0.9,1.8,82,0.00,,,0.00,WUHU216HW,2013-05-25 04:38:00,
2013-05-24 21:43:00,51.5,46.2,30.01,SW,225,0.0,1.3,82,0.00,,,0.00,WUHU216HW,2013-05-25 04:43:00,
2013-05-24 21:48:00,51.5,46.2,30.01,West,270,1.6,1.6,82,0.00,,,0.00,WUHU216HW,2013-05-25 04:48:00,
2013-05-24 21:53:00,51.3,46.6,30.01,SW,225,2.5,2.5,84,0.00,,,0.00,WUHU216HW,2013-05-25 04:53:00,
2013-05-24 21:58:00,51.1,46.5,30.01,WSW,248,0.7,2.5,84,0.00,,,0.00,WUHU216HW,2013-05-25 04:58:00,
2013-05-24 22:03:00,51.1,46.5,30.01,SW,225,2.0,3.4,84,0.00,,,0.00,WUHU216HW,2013-05-25 05:03:00,
2013-05-24 22:08:00,51.1,46.7,30.01,WSW,248,1.8,3.4,85,0.00,,,0.00,WUHU216HW,2013-05-25 05:08:00,
2013-05-24 22:13:00,51.1,46.7,30.02,WSW,248,1.6,2.5,85,0.00,,,0.00,WUHU216HW,2013-05-25 05:13:00,
2013-05-24 22:18:00,51.1,46.7,30.02,WSW,248,1.6,3.4,85,0.00,,,0.00,WUHU216HW,2013-05-25 05:18:00,
2013-05-24 22:23:00,51.1,46.5,30.02,NW,315,1.1,4.7,84,0.00,,,0.00,WUHU216HW,2013-05-25 05:23:00,
2013-05-24 22:28:00,51.1,46.5,30.01,WSW,248,1.6,4.7,84,0.00,,,0.00,WUHU216HW,2013-05-25 05:28:00,
2013-05-24 22:33:00,51.1,46.5,30.01,NW,315,0.4,3.1,84,0.00,,,0.00,WUHU216HW,2013-05-25 05:33:00,
2013-05-24 22:38:00,50.9,46.3,30.01,WSW,248,1.8,4.0,84,0.00,,,0.00,WUHU216HW,2013-05-25 05:38:00,
2013-05-24 22:43:00,50.9,46.3,30.01,WSW,248,4.0,4.0,84,0.00,,,0.00,WUHU216HW,2013-05-25 05:43:00,
2013-05-24 22:48:00,50.9,46.3,30.01,WSW,248,2.5,4.0,84,0.00,,,0.00,WUHU216HW,2013-05-25 05:48:00,
2013-05-24 22:53:00,50.9,46.3,30.01,WSW,248,2.5,2.5,84,0.00,,,0.00,WUHU216HW,2013-05-25 05:53:00,
2013-05-24 22:58:00,50.8,46.4,30.01,NW,315,2.9,3.1,85,0.00,,,0.00,WUHU216HW,2013-05-25 05:58:00,
2013-05-24 23:03:00,50.8,46.4,30.01,SSW,203,2.2,3.4,85,0.00,,,0.00,WUHU216HW,2013-05-25 06:03:00,
2013-05-24 23:08:00,50.8,46.4,30.01,West,270,1.6,6.0,85,0.00,,,0.00,WUHU216HW,2013-05-25 06:08:00,
2013-05-24 23:13:00,50.8,46.4,30.01,WSW,248,3.4,6.0,85,0.00,,,0.00,WUHU216HW,2013-05-25 06:13:00,
2013-05-24 23:18:00,50.9,46.5,30.01,WNW,293,4.5,4.9,85,0.00,,,0.00,WUHU216HW,2013-05-25 06:18:00,
2013-05-24 23:23:00,50.9,46.5,30.01,West,270,3.1,6.0,85,0.00,,,0.00,WUHU216HW,2013-05-25 06:23:00,
2013-05-24 23:28:00,50.8,46.1,30.01,West,270,1.6,6.0,84,0.00,,,0.00,WUHU216HW,2013-05-25 06:28:00,
2013-05-24 23:33:00,50.8,46.4,30.01,West,270,2.7,4.7,85,0.00,,,0.00,WUHU216HW,2013-05-25 06:33:00,
2013-05-24 23:38:00,50.8,46.6,30.01,SSW,203,5.4,5.4,86,0.00,,,0.00,WUHU216HW,2013-05-25 06:38:00,
2013-05-24 23:43:00,50.8,46.6,30.01,NNW,338,2.5,5.4,86,0.00,,,0.00,WUHU216HW,2013-05-25 06:43:00,
2013-05-24 23:48:00,50.6,46.4,30.01,West,270,4.7,4.9,86,0.00,,,0.00,WUHU216HW,2013-05-25 06:48:00,
2013-05-24 23:53:00,50.6,46.8,30.01,NW,315,1.8,6.3,87,0.00,,,0.00,WUHU216HW,2013-05-25 06:53:00,
2013-05-24 23:58:00,50.4,46.6,30.01,WSW,248,2.5,6.3,87,0.00,,,0.00,WUHU216HW,2013-05-25 06:58:00,